Date String (YYYY-MM-DD hh:mm:ss) UTC,Instrument flags,Ambient pressure (hPa),Sample flow (lpm),Bypass flow (lpm),Sample temperature (°C),Ambient temperature (°C),ASC tube jacket temperature (°C),LED temperature (°C),Box temperature (°C),Sample RH (%),Span deviation,Mass concentration (μg/m³),Mass concentration (μg/m³),Mass concentration (μg/m³)
DateTimeUTC,F1_M11,P_M11,Q1_M11,Q2_M11,T1_M11,T2_M11,T3_M11,T4_M11,T5_M11,U1_M11,ZSPAN_M11,X0_M11,X2_M11,X1_M11
2023-04-04 07:00:00,,0812.9,4.97,0.00,22.2,22.4,00.0,30.4,24.2,17.1,0000.0,0018.55,0004.00,0002.83
2023-04-04 07:01:00,,0812.8,5.01,0.00,22.3,22.8,00.0,30.5,24.3,17.0,0000.0,0018.03,0003.96,0002.80
2023-04-04 07:02:00,,0812.7,5.00,0.00,22.3,22.5,00.0,30.6,24.1,17.0,0000.0,0018.36,0003.90,0002.76
2023-04-04 07:03:00,,0812.5,4.99,0.00,22.3,22.2,00.0,30.6,24.0,17.0,0000.0,0017.90,0003.87,0002.72
2023-04-04 07:04:00,,0812.4,5.00,0.00,22.3,21.8,00.0,30.6,23.8,17.0,0000.0,0017.18,0003.83,0002.70
2023-04-04 07:05:00,,0812.4,5.00,0.00,22.3,21.4,00.0,30.6,23.7,17.0,0000.0,0016.65,0003.83,0002.68
2023-04-04 07:06:00,,0812.4,5.00,0.00,22.3,21.1,00.0,30.6,23.7,17.0,0000.0,0014.94,0003.79,0002.68
2023-04-04 07:07:00,,0812.4,5.00,0.00,22.2,20.9,00.0,30.6,23.6,17.0,0000.0,0013.45,0003.78,0002.66
2023-04-04 07:08:00,,0812.4,5.02,0.00,22.2,20.7,00.0,30.6,23.5,17.0,0000.0,0011.64,0003.78,0002.64
2023-04-04 07:09:00,,0812.6,5.00,0.00,22.2,20.5,00.0,30.6,23.5,17.1,0000.0,0011.67,0003.78,0002.63
2023-04-04 07:10:00,,0812.5,5.00,0.00,22.1,20.2,00.0,30.6,23.4,17.2,0000.0,0011.05,0003.79,0002.60
2023-04-04 07:11:00,,0812.6,5.00,0.00,22.1,20.0,00.0,30.6,23.4,17.4,0000.0,0010.20,0003.69,0002.53
2023-04-04 07:12:00,,0812.6,5.00,0.00,22.0,19.9,00.0,30.5,23.3,17.5,0000.0,0010.03,0003.63,0002.45
2023-04-04 07:13:00,,0812.7,5.01,0.00,22.0,20.1,00.0,30.5,23.4,17.5,0000.0,0009.13,0003.57,0002.38
2023-04-04 07:14:00,,0812.7,5.00,0.00,22.1,21.2,00.0,30.4,23.9,17.4,0000.0,0009.21,0003.48,0002.32
2023-04-04 07:15:00,,0812.8,4.99,0.00,22.3,22.4,00.0,30.4,24.3,17.3,0000.0,0008.93,0003.36,0002.23
2023-04-04 07:16:00,,0812.9,5.00,0.00,22.4,23.3,00.0,30.5,24.5,17.2,0000.0,0009.00,0003.26,0002.16
2023-04-04 07:17:00,,0812.9,5.00,0.00,22.5,23.1,00.0,30.6,24.3,17.1,0000.0,0009.53,0003.19,0002.11
2023-04-04 07:18:00,,0812.9,4.99,0.00,22.4,22.7,00.0,30.6,24.1,17.1,0000.0,0009.85,0003.18,0002.06
2023-04-04 07:19:00,,0812.8,5.00,0.00,22.4,22.3,00.0,30.7,24.0,17.0,0000.0,0010.23,0003.14,0002.03
2023-04-04 07:20:00,,0812.7,5.01,0.00,22.4,21.9,00.0,30.7,23.9,16.9,0000.0,0010.13,0003.05,0002.00
2023-04-04 07:21:00,,0812.7,5.00,0.00,22.4,21.5,00.0,30.7,23.8,16.9,0000.0,0010.21,0002.97,0001.98
2023-04-04 07:22:00,,0812.7,4.99,0.00,22.3,21.1,00.0,30.7,23.8,17.0,0000.0,0010.32,0003.00,0002.00
2023-04-04 07:23:00,,0812.7,4.99,0.00,22.3,20.9,00.0,30.7,23.7,17.0,0000.0,0010.43,0003.04,0002.04
2023-04-04 07:24:00,,0812.7,5.02,0.00,22.2,20.7,00.0,30.7,23.7,17.0,0000.0,0010.71,0003.03,0002.07
2023-04-04 07:25:00,,0812.8,5.00,0.00,22.2,20.5,00.0,30.7,23.6,17.0,0000.0,0010.76,0003.04,0002.09
2023-04-04 07:26:00,,0812.7,5.00,0.00,22.2,20.4,00.0,30.7,23.5,17.1,0000.0,0010.79,0003.08,0002.10
2023-04-04 07:27:00,,0812.7,5.00,0.00,22.2,20.7,00.0,30.6,23.7,17.2,0000.0,0010.70,0003.09,0002.09
2023-04-04 07:28:00,,0812.6,5.01,0.00,22.3,21.7,00.0,30.6,24.2,17.1,0000.0,0010.84,0003.11,0002.08
2023-04-04 07:29:00,,0812.6,4.98,0.00,22.4,22.8,00.0,30.6,24.5,17.1,0000.0,0010.96,0003.04,0002.06
2023-04-04 07:30:00,,0812.6,4.99,0.00,22.5,22.9,00.0,30.6,24.4,17.0,0000.0,0011.39,0002.97,0002.02
2023-04-04 07:31:00,,0812.6,5.02,0.00,22.5,22.6,00.0,30.7,24.2,17.1,0000.0,0011.33,0002.94,0001.97
2023-04-04 07:32:00,,0812.6,4.98,0.00,22.5,22.1,00.0,30.7,24.1,17.2,0000.0,0011.06,0002.91,0001.93
2023-04-04 07:33:00,,0812.5,5.00,0.00,22.5,21.8,00.0,30.8,24.0,17.3,0000.0,0011.02,0002.89,0001.90
2023-04-04 07:34:00,,0812.5,5.01,0.00,22.4,21.4,00.0,30.8,23.9,17.3,0000.0,0011.39,0002.80,0001.85
2023-04-04 07:35:00,,0812.4,4.99,0.00,22.4,21.2,00.0,30.8,23.8,17.4,0000.0,0011.23,0002.76,0001.81
2023-04-04 07:36:00,,0812.5,4.99,0.00,22.4,21.0,00.0,30.8,23.7,17.4,0000.0,0010.80,0002.72,0001.78
2023-04-04 07:37:00,,0812.4,5.00,0.00,22.3,20.8,00.0,30.7,23.7,17.5,0000.0,0010.39,0002.68,0001.75
2023-04-04 07:38:00,,0812.4,5.02,0.00,22.4,21.3,00.0,30.7,24.0,17.5,0000.0,0010.18,0002.63,0001.72
2023-04-04 07:39:00,,0812.4,5.00,0.00,22.5,22.4,00.0,30.7,24.4,17.4,0000.0,0010.64,0002.57,0001.71
2023-04-04 07:40:00,,0812.5,4.99,0.00,22.6,23.2,00.0,30.7,24.7,17.3,0000.0,0010.41,0002.61,0001.69
2023-04-04 07:41:00,,0812.5,5.00,0.00,22.7,23.0,00.0,30.8,24.5,17.2,0000.0,0010.47,0002.61,0001.69
2023-04-04 07:42:00,,0812.6,5.00,0.00,22.6,22.6,00.0,30.8,24.3,17.2,0000.0,0009.96,0002.58,0001.68
2023-04-04 07:43:00,,0812.6,4.98,0.00,22.6,22.2,00.0,30.9,24.1,17.3,0000.0,0009.94,0002.59,0001.71
2023-04-04 07:44:00,,0812.7,5.00,0.00,22.6,21.7,00.0,30.9,24.1,17.2,0000.0,0010.34,0002.61,0001.77
2023-04-04 07:45:00,,0812.7,5.00,0.00,22.5,21.4,00.0,30.9,24.0,17.2,0000.0,0010.15,0002.68,0001.85
2023-04-04 07:46:00,,0812.8,5.00,0.00,22.5,21.1,00.0,30.9,23.9,17.1,0000.0,0009.90,0002.79,0001.95
2023-04-04 07:47:00,,0812.9,4.99,0.00,22.5,20.9,00.0,30.9,23.8,17.1,0000.0,0009.85,0002.88,0002.03
2023-04-04 07:48:00,,0812.9,5.02,0.00,22.5,21.3,00.0,30.8,24.1,17.1,0000.0,0009.99,0002.96,0002.10
2023-04-04 07:49:00,,0812.9,5.00,0.00,22.6,22.3,00.0,30.8,24.5,17.0,0000.0,0010.34,0003.10,0002.19
2023-04-04 07:50:00,,0812.9,4.99,0.00,22.7,23.3,00.0,30.8,24.8,16.8,0000.0,0009.82,0003.15,0002.30
2023-04-04 07:51:00,,0812.9,5.01,0.00,22.8,23.2,00.0,30.9,24.7,16.8,0000.0,0009.04,0003.20,0002.41
2023-04-04 07:52:00,,0812.8,5.01,0.00,22.8,22.8,00.0,31.0,24.5,16.8,0000.0,0010.06,0003.23,0002.48
2023-04-04 07:53:00,,0812.8,4.99,0.00,22.7,22.4,00.0,31.0,24.3,16.8,0000.0,0010.63,0003.29,0002.54
2023-04-04 07:54:00,,0812.8,5.01,0.00,22.7,22.0,00.0,31.0,24.2,16.9,0000.0,0010.68,0003.30,0002.59
2023-04-04 07:55:00,,0812.8,5.00,0.00,22.6,21.7,00.0,31.0,24.0,17.0,0000.0,0010.55,0003.28,0002.58
2023-04-04 07:56:00,,0812.8,5.00,0.00,22.6,21.3,00.0,31.0,24.0,17.0,0000.0,0010.51,0003.26,0002.53
2023-04-04 07:57:00,,0812.8,4.99,0.00,22.6,21.0,00.0,31.0,23.9,17.1,0000.0,0010.52,0003.22,0002.46
2023-04-04 07:58:00,,0812.8,5.01,0.00,22.6,20.7,00.0,31.0,23.8,17.2,0000.0,0010.49,0003.16,0002.40
2023-04-04 07:59:00,,0812.8,5.01,0.00,22.5,20.6,00.0,31.0,23.8,17.3,0000.0,0010.10,0003.11,0002.33
